TimeEDT,TemperatureF,Dew PointF,Humidity,Sea Level PressureIn,VisibilityMPH,Wind Direction,Wind SpeedMPH,Gust SpeedMPH,PrecipitationIn,Events,Conditions,WindDirDegrees,DateUTC
12:51 AM,50.0,48.9,96,29.92,1.0,Calm,Calm,-,N/A,,Overcast,0,2013-05-23 04:51:00
1:33 AM,50.0,48.2,94,29.92,0.8,NNE,3.5,-,N/A,,Mist,30,2013-05-23 05:33:00
1:46 AM,50.0,48.2,94,29.92,1.0,Calm,Calm,-,N/A,,Mist,0,2013-05-23 05:46:00
1:51 AM,50.0,48.0,93,29.91,1.0,North,3.5,-,N/A,,Mist,10,2013-05-23 05:51:00
2:17 AM,50.0,48.2,94,29.91,2.5,Calm,Calm,-,N/A,,Overcast,0,2013-05-23 06:17:00
2:51 AM,50.0,48.0,93,29.90,1.8,Calm,Calm,-,N/A,,Overcast,0,2013-05-23 06:51:00
3:11 AM,50.0,48.2,94,29.89,0.8,Calm,Calm,-,N/A,,Mist,0,2013-05-23 07:11:00
3:19 AM,50.0,48.2,94,29.89,1.8,ESE,3.5,-,N/A,,Overcast,110,2013-05-23 07:19:00
3:26 AM,50.0,48.2,94,29.89,2.5,Calm,Calm,-,N/A,,Overcast,0,2013-05-23 07:26:00
3:38 AM,50.0,48.2,94,29.88,3.0,East,3.5,-,N/A,,Overcast,100,2013-05-23 07:38:00
3:51 AM,50.0,48.9,96,29.87,3.0,Calm,Calm,-,N/A,,Overcast,0,2013-05-23 07:51:00
4:35 AM,50.0,48.2,94,29.89,2.5,Calm,Calm,-,N/A,,Overcast,0,2013-05-23 08:35:00
4:51 AM,50.0,48.0,93,29.88,1.8,Calm,Calm,-,N/A,,Overcast,0,2013-05-23 08:51:00
5:26 AM,50.0,48.2,94,29.89,0.8,Calm,Calm,-,N/A,,Mist,0,2013-05-23 09:26:00
5:51 AM,50.0,48.9,96,29.90,0.5,Calm,Calm,-,N/A,Fog,Fog,0,2013-05-23 09:51:00
6:14 AM,50.0,48.2,94,29.90,1.0,Calm,Calm,-,N/A,,Overcast,0,2013-05-23 10:14:00
6:51 AM,50.0,48.9,96,29.91,2.0,Calm,Calm,-,N/A,,Overcast,0,2013-05-23 10:51:00
7:02 AM,50.0,48.2,94,29.91,1.8,Calm,Calm,-,N/A,,Overcast,0,2013-05-23 11:02:00
7:18 AM,51.8,48.2,88,29.91,2.0,Calm,Calm,-,N/A,,Overcast,0,2013-05-23 11:18:00
7:51 AM,51.1,50.0,96,29.90,2.5,Calm,Calm,-,N/A,,Overcast,0,2013-05-23 11:51:00
7:58 AM,51.8,50.0,94,29.90,3.0,Calm,Calm,-,N/A,,Overcast,0,2013-05-23 11:58:00
8:07 AM,51.8,50.0,94,29.90,2.0,Calm,Calm,-,N/A,,Overcast,0,2013-05-23 12:07:00
8:35 AM,51.8,51.8,100,29.90,1.2,Calm,Calm,-,N/A,,Overcast,0,2013-05-23 12:35:00
8:51 AM,52.0,51.1,97,29.89,1.5,Calm,Calm,-,N/A,,Overcast,0,2013-05-23 12:51:00
9:03 AM,53.6,51.8,94,29.90,2.0,Calm,Calm,-,N/A,,Overcast,0,2013-05-23 13:03:00
9:13 AM,53.6,51.8,94,29.89,1.5,Calm,Calm,-,N/A,,Overcast,0,2013-05-23 13:13:00
9:51 AM,54.0,53.1,97,29.88,1.0,South,3.5,-,N/A,,Overcast,170,2013-05-23 13:51:00
10:28 AM,55.4,53.6,94,29.89,0.8,Calm,Calm,-,N/A,,Overcast,0,2013-05-23 14:28:00
10:41 AM,55.4,53.6,94,29.88,1.0,Calm,Calm,-,N/A,,Overcast,0,2013-05-23 14:41:00
10:51 AM,57.0,55.0,93,29.88,1.5,Calm,Calm,-,N/A,,Overcast,0,2013-05-23 14:51:00
11:00 AM,55.4,53.6,94,29.88,2.0,Calm,Calm,-,0.00,Rain,Light Rain,0,2013-05-23 15:00:00
11:22 AM,55.4,55.4,100,29.89,1.5,Calm,Calm,-,0.00,Rain,Light Rain,0,2013-05-23 15:22:00
11:31 AM,55.4,55.4,100,29.89,2.5,Calm,Calm,-,0.00,Rain,Light Rain,0,2013-05-23 15:31:00
11:51 AM,57.0,55.0,93,29.87,2.0,Calm,Calm,-,0.00,Rain,Light Rain,0,2013-05-23 15:51:00
12:11 PM,59.0,57.2,94,29.87,4.0,Calm,Calm,-,0.00,,Overcast,0,2013-05-23 16:11:00
12:51 PM,60.1,57.9,93,29.87,7.0,Variable,4.6,-,0.00,,Overcast,0,2013-05-23 16:51:00
1:51 PM,61.0,59.0,93,29.84,3.0,Calm,Calm,-,0.01,,Overcast,0,2013-05-23 17:51:00
1:59 PM,60.8,59.0,94,29.84,2.5,South,4.6,-,N/A,,Overcast,180,2013-05-23 17:59:00
2:28 PM,62.6,60.8,94,29.83,3.0,SSE,3.5,-,0.00,,Overcast,150,2013-05-23 18:28:00
2:51 PM,63.0,60.1,90,29.83,4.0,SSE,3.5,-,0.00,,Overcast,160,2013-05-23 18:51:00
3:51 PM,64.0,61.0,90,29.83,3.0,Calm,Calm,-,0.00,Rain,Light Rain,0,2013-05-23 19:51:00
4:00 PM,62.6,60.8,94,29.83,2.0,Calm,Calm,-,0.00,Rain-Thunderstorm,Light Rain,0,2013-05-23 20:00:00
4:07 PM,62.6,62.6,100,29.83,1.0,Calm,Calm,-,0.00,Rain-Thunderstorm,Light Rain,0,2013-05-23 20:07:00
4:13 PM,64.4,62.6,94,29.83,3.0,Calm,Calm,-,0.00,Thunderstorm,Mostly Cloudy,0,2013-05-23 20:13:00
4:21 PM,64.4,62.6,94,29.83,3.0,Calm,Calm,-,0.00,,Mostly Cloudy,0,2013-05-23 20:21:00
4:29 PM,64.4,62.6,94,29.83,3.0,Calm,Calm,-,0.00,,Mostly Cloudy,0,2013-05-23 20:29:00
4:51 PM,66.0,63.0,90,29.82,4.0,Calm,Calm,-,0.00,,Mostly Cloudy,0,2013-05-23 20:51:00
5:47 PM,66.2,64.4,94,29.82,2.5,Calm,Calm,-,0.00,Rain,Light Rain,0,2013-05-23 21:47:00
5:51 PM,66.0,64.0,93,29.81,2.5,Calm,Calm,-,0.00,Rain,Light Rain,0,2013-05-23 21:51:00
6:51 PM,68.0,66.0,93,29.81,3.0,South,5.8,-,0.00,Rain,Light Rain,180,2013-05-23 22:51:00
7:04 PM,68.0,66.2,94,29.82,2.5,Variable,3.5,-,0.00,Rain,Light Rain,0,2013-05-23 23:04:00
7:11 PM,68.0,66.2,94,29.82,2.0,South,5.8,-,0.00,Rain,Rain,180,2013-05-23 23:11:00
7:19 PM,68.0,66.2,94,29.81,2.0,South,3.5,-,N/A,Rain,Rain,170,2013-05-23 23:19:00
7:38 PM,68.0,66.2,94,29.82,4.0,Variable,5.8,-,N/A,Rain,Light Rain,0,2013-05-23 23:38:00
7:51 PM,68.0,66.0,93,29.81,4.0,Variable,3.5,-,N/A,Rain,Light Rain,0,2013-05-23 23:51:00
8:51 PM,66.9,64.9,93,29.80,9.0,Variable,4.6,-,N/A,,Mostly Cloudy,0,2013-05-24 00:51:00
9:10 PM,66.2,64.4,94,29.81,9.0,South,5.8,-,N/A,,Scattered Clouds,180,2013-05-24 01:10:00
9:31 PM,66.2,64.4,94,29.81,8.0,South,3.5,-,N/A,,Mostly Cloudy,180,2013-05-24 01:31:00
9:39 PM,66.2,64.4,94,29.81,7.0,South,4.6,-,N/A,,Overcast,180,2013-05-24 01:39:00
9:51 PM,66.9,64.9,93,29.80,9.0,Variable,5.8,-,N/A,,Mostly Cloudy,0,2013-05-24 01:51:00
10:23 PM,66.2,64.4,94,29.80,10.0,Variable,4.6,-,N/A,,Overcast,0,2013-05-24 02:23:00
10:51 PM,66.0,64.0,93,29.79,10.0,South,5.8,-,N/A,,Overcast,170,2013-05-24 02:51:00
11:42 PM,66.2,64.4,94,29.79,4.0,South,8.1,-,N/A,Rain,Rain,170,2013-05-24 03:42:00
11:51 PM,66.0,64.0,93,29.78,3.0,South,6.9,-,N/A,Rain,Light Rain,180,2013-05-24 03:51:00